Theta_e
351 347 348 340 320 312 308 313 323 322 323 330 331 327 323 329 325 315 341 348 352 353 359 359 363 361 360 361 361 361 360 360 361 361 361 360 360 360 359 358 358 358 359 361 360 360 359 359 361
347 346 340 328 314 305 310 324 322 326 329 328 330 331 328 327 339 339 340 351 352 354 358 359 362 363 360 360 361 360 360 360 360 360 360 359 359 359 358 358 358 358 358 360 359 359 358 359 358
349 348 328 322 312 308 311 324 325 328 332 332 329 333 331 331 339 339 347 351 352 353 357 358 366 364 361 360 360 360 359 360 360 359 359 358 358 358 358 356 357 359 359 360 359 359 357 357 358
337 331 327 317 317 321 322 324 329 328 329 331 330 327 336 344 341 345 350 351 351 355 357 362 365 364 363 361 360 360 360 360 360 359 359 358 358 358 357 356 358 359 360 360 358 358 357 356 356
335 326 316 312 317 323 326 331 332 328 326 329 330 326 332 343 348 349 349 351 352 354 357 359 366 366 365 361 362 362 360 360 360 360 359 358 358 359 357 357 358 359 359 359 358 357 356 356 354
323 321 308 306 314 322 326 328 329 328 329 331 328 327 328 345 345 349 351 351 355 354 356 358 364 366 365 363 363 363 363 362 360 360 360 359 359 358 357 358 359 359 361 359 358 357 355 354 353
320 314 310 312 315 320 324 326 326 327 328 328 330 321 333 342 347 350 351 352 353 355 354 354 356 361 365 365 362 361 360 361 361 360 360 359 359 359 359 359 360 359 358 358 356 355 355 355 355
326 320 315 316 314 312 327 326 330 328 326 333 334 323 328 339 348 349 350 350 352 353 353 353 353 355 357 359 364 363 361 363 362 362 361 362 361 361 361 362 362 359 359 359 357 356 358 358 358
332 313 310 314 316 314 329 325 332 335 330 332 333 332 337 345 346 346 345 346 346 349 351 354 352 354 355 355 359 362 362 362 362 362 361 359 357 357 359 358 361 360 360 359 356 359 356 354 354
320 311 314 323 323 316 324 327 325 327 326 326 331 338 341 343 343 340 340 340 343 344 346 350 352 352 352 356 355 354 356 355 356 356 356 355 354 354 358 358 361 360 358 358 358 358 355 352 350
320 312 320 322 327 325 323 326 328 324 321 326 327 333 337 339 339 339 339 340 341 344 346 347 350 350 350 352 351 351 352 352 352 354 354 354 353 353 355 355 357 357 358 357 357 356 353 349 348
316 322 321 322 330 324 322 326 323 325 324 332 334 336 336 336 336 337 337 339 338 341 344 346 348 348 349 350 350 350 349 350 349 352 352 352 351 351 351 352 355 354 354 352 352 352 352 349 349
313 312 316 321 326 326 327 323 323 325 330 336 336 336 335 335 335 337 338 339 337 338 341 344 347 348 349 349 349 348 348 349 349 350 351 351 350 349 350 351 354 353 351 351 351 350 349 348 346
311 312 313 317 326 327 323 325 323 323 334 332 334 333 334 334 335 335 335 335 335 337 338 343 345 347 348 349 348 347 347 347 347 348 350 351 350 349 348 347 351 351 351 351 350 347 348 347 346
311 308 311 314 324 325 325 319 320 326 333 330 331 332 333 334 335 335 336 335 335 336 338 341 344 346 347 349 347 347 347 347 346 347 349 351 350 348 344 342 342 348 349 350 348 346 348 348 347
306 305 301 309 318 321 315 305 315 327 330 329 330 331 332 333 334 336 337 337 337 337 338 342 345 346 347 349 347 347 348 348 347 347 348 350 349 345 345 346 348 351 348 350 348 346 346 347 347
301 297 299 303 313 320 311 306 314 326 327 327 329 330 331 332 334 336 338 337 338 339 340 342 345 345 347 350 348 347 349 348 347 348 347 349 348 346 345 348 350 351 347 348 347 345 344 345 347
295 296 299 298 306 313 309 307 317 323 325 326 327 329 331 331 333 337 338 338 339 340 341 344 346 346 347 348 347 347 347 347 346 347 347 348 347 344 345 348 352 351 349 348 347 344 344 344 346
301 298 298 301 305 306 304 306 309 319 323 325 325 327 329 331 335 338 339 338 338 340 339 344 345 345 345 343 343 342 343 344 345 345 348 347 346 345 346 349 350 352 348 347 348 345 344 345 348
298 296 296 301 306 302 300 300 303 317 321 326 326 326 326 329 329 336 338 338 336 337 338 342 345 346 345 345 345 345 344 344 346 347 347 347 345 345 346 349 348 350 349 348 349 349 346 345 346
296 293 296 298 302 300 298 297 299 304 318 322 327 329 327 327 326 331 335 339 337 335 337 341 345 346 346 346 344 344 345 345 345 345 346 348 346 345 346 350 348 348 348 344 345 350 347 344 344
292 300 300 300 295 291 297 289 302 306 303 312 314 325 326 325 327 331 334 338 340 338 340 340 344 346 346 345 343 342 341 340 342 343 346 348 347 346 346 348 349 347 349 347 349 351 348 344 344
299 299 298 299 293 290 293 290 298 307 309 313 319 319 325 327 327 330 334 337 340 342 342 341 343 345 347 345 345 343 341 343 344 344 345 346 349 346 348 351 350 349 349 350 352 347 348 348 346
302 299 295 291 290 287 289 291 295 306 310 314 318 322 322 326 328 331 335 338 339 341 343 343 342 344 345 345 345 343 342 341 341 341 342 343 347 348 347 349 351 352 351 349 350 348 346 345 348
298 293 288 287 286 286 290 299 303 313 317 316 318 320 323 325 326 330 333 335 337 339 341 341 340 341 343 343 345 344 344 342 341 342 342 342 343 345 347 347 348 349 350 351 351 348 345 339 344
296 294 289 285 284 288 292 294 306 316 319 319 320 322 322 324 328 327 333 335 337 339 340 341 339 340 342 343 344 345 345 342 342 343 343 343 343 345 348 348 349 349 350 350 351 349 346 344 341
296 292 295 288 285 287 289 304 309 317 316 316 317 320 321 323 328 329 334 336 336 338 339 340 340 341 342 342 344 344 344 343 343 344 344 345 346 346 348 349 349 349 349 350 351 349 348 349 348
301 299 296 292 288 287 291 300 304 310 312 314 314 316 321 323 326 331 332 335 336 338 340 340 340 341 342 343 344 344 344 344 345 344 344 345 346 347 348 348 348 349 349 350 348 347 350 349 348
300 298 295 294 292 290 288 296 311 311 314 313 314 318 321 323 324 328 331 333 337 340 340 340 341 342 342 343 344 344 344 344 345 344 344 345 347 347 347 348 348 347 348 350 346 345 346 347 348
301 297 296 294 293 291 291 294 316 314 316 315 315 319 322 325 325 327 329 331 330 332 333 337 341 342 344 346 346 345 345 345 345 344 345 345 344 347 347 348 347 347 347 348 346 345 347 344 346
Wind_Speed
4 4 1 1 4 6 3 6 3 2 3 0 5 2 4 3 2 3 4 6 15 15 12 15 18 18 17 15 16 15 15 14 13 12 13 13 12 11 10 9 7 7 7 8 8 8 7 7 9
5 4 3 1 6 5 5 5 6 5 4 5 5 4 4 3 4 8 9 10 15 14 11 12 19 18 18 17 15 15 15 14 13 12 12 11 11 10 9 7 7 7 6 7 8 7 6 6 7
5 2 3 4 3 2 3 2 3 1 2 1 4 4 3 2 5 13 7 14 13 12 9 11 18 17 18 17 16 14 15 14 14 12 11 10 9 9 8 7 6 6 7 7 7 7 7 8 8
2 3 4 5 3 3 2 3 0 6 5 4 2 7 5 1 9 6 15 15 12 9 9 13 17 18 18 17 16 15 14 14 13 12 11 10 9 8 7 6 6 6 8 8 7 6 6 7 8
4 3 4 3 3 2 4 0 2 2 3 3 2 3 4 4 12 16 15 13 13 10 9 11 15 16 15 16 15 15 14 13 13 11 10 9 8 7 6 5 6 6 7 7 6 5 3 4 3
4 3 6 1 4 3 4 4 2 2 1 0 3 5 3 9 16 13 13 11 11 11 7 8 15 16 15 15 14 12 12 12 12 11 10 8 8 7 5 5 6 5 6 6 5 4 3 3 2
5 4 3 1 3 4 5 7 5 5 4 2 5 4 2 9 11 13 11 9 9 9 7 5 6 11 15 14 13 13 12 11 11 11 9 8 8 8 6 6 6 6 6 5 4 3 2 4 3
4 4 2 3 4 6 3 5 5 5 2 4 4 4 5 9 14 11 10 8 7 8 6 6 5 5 6 6 14 13 12 11 10 9 9 9 8 7 8 6 6 6 5 3 4 4 7 7 6
2 5 1 4 4 5 3 3 2 3 5 2 2 5 8 18 15 12 11 6 5 5 6 6 6 5 5 4 7 12 12 11 10 10 9 6 1 2 5 6 6 6 6 8 7 9 9 6 4
3 3 7 6 4 4 4 3 5 2 3 2 6 10 19 18 15 16 15 14 9 9 6 5 6 6 5 4 3 5 4 3 3 4 3 3 2 2 2 4 7 6 7 6 8 9 6 3 2
3 4 4 7 8 1 5 3 3 6 4 7 10 18 19 17 12 13 12 14 15 11 7 6 7 6 5 3 2 2 1 2 2 4 4 3 2 2 2 1 2 2 4 2 3 1 1 2 2
2 9 7 7 1 6 6 6 3 7 7 5 19 21 18 18 15 14 13 12 11 10 11 8 7 7 6 3 3 3 3 2 2 3 3 2 2 3 3 2 3 3 1 2 1 2 1 3 4
2 5 4 6 7 2 7 6 4 9 3 12 17 17 18 17 16 10 10 9 9 10 9 9 8 8 7 5 3 3 3 3 3 3 3 3 3 3 2 3 2 3 1 2 2 3 2 3 1
4 7 8 5 7 5 6 2 3 2 8 13 17 17 15 15 16 9 10 12 12 12 10 8 8 8 7 6 6 5 4 4 3 3 3 4 3 3 3 3 3 4 2 3 5 2 0 2 2
5 7 9 2 5 6 8 2 11 6 10 13 14 14 13 14 13 17 16 14 14 12 12 11 9 8 9 8 6 5 5 5 4 4 5 5 4 4 4 3 3 3 3 4 2 3 3 3 2
5 5 7 6 3 1 6 12 5 12 15 13 14 13 14 16 18 14 12 12 12 11 13 12 11 10 9 8 6 4 5 4 5 4 3 5 5 5 3 3 3 1 3 2 2 3 3 3 2
8 4 4 14 3 3 3 9 3 11 14 13 13 14 14 13 13 14 14 13 13 13 12 11 12 11 10 8 5 5 5 4 4 3 4 5 5 6 4 3 3 2 3 2 2 3 2 3 3
4 5 6 5 8 4 5 13 1 8 13 17 13 12 14 15 21 17 17 16 13 11 10 12 10 10 10 4 3 2 2 3 3 4 4 6 4 5 4 3 2 2 4 3 3 3 3 3 3
2 3 6 11 8 2 5 7 9 10 9 10 11 13 15 19 14 16 15 17 15 13 11 12 12 10 8 4 3 2 5 3 2 3 6 6 5 6 5 3 3 2 3 3 5 3 3 2 1
5 5 7 10 2 3 5 10 9 9 17 20 18 15 15 13 8 15 16 17 18 17 15 13 13 11 10 7 4 3 3 2 2 3 5 5 5 5 5 5 4 4 3 3 2 2 1 1 3
5 5 5 7 7 4 6 9 12 8 8 8 10 9 11 16 14 13 17 18 17 18 17 15 15 13 11 8 5 3 3 2 1 2 3 4 6 6 5 5 4 3 2 3 2 2 2 2 2
4 4 4 4 3 3 3 5 13 19 11 14 12 13 12 12 9 10 16 17 19 18 16 16 15 14 12 11 8 7 5 6 4 4 3 4 6 6 6 5 5 5 3 3 3 3 2 2 2
9 2 1 2 2 3 5 7 9 8 19 28 21 21 10 10 14 15 18 19 17 16 16 16 15 13 13 13 12 9 6 5 2 2 5 4 4 6 6 6 5 4 3 3 4 3 3 1 1
2 1 6 4 3 4 7 5 8 15 18 23 20 21 17 7 8 8 11 11 12 12 14 14 14 13 12 12 12 12 12 7 5 4 4 4 3 3 5 5 4 4 3 4 3 3 3 2 2
6 7 5 7 7 3 4 11 3 12 15 15 19 21 18 15 9 7 13 13 14 16 15 13 14 13 12 12 13 11 11 10 10 9 6 5 4 3 6 6 5 4 5 5 3 4 4 3 3
3 7 7 2 1 4 2 5 2 10 11 12 12 16 21 23 18 7 8 10 10 11 13 13 13 12 11 11 12 10 10 7 7 7 4 5 5 6 6 8 7 8 7 7 6 4 4 4 4
3 3 4 8 3 3 3 6 3 20 20 22 23 22 23 23 22 12 7 6 7 8 9 6 8 9 10 11 9 9 8 8 8 7 7 6 6 6 6 7 8 9 9 8 7 6 6 5 5
6 5 5 5 2 1 2 3 6 17 19 21 21 20 20 20 20 18 12 4 5 5 7 8 7 6 4 7 7 8 8 8 9 7 11 11 9 9 7 7 7 7 9 9 7 6 6 6 5
5 4 7 6 3 5 1 2 2 7 11 16 17 16 16 18 17 15 14 13 10 6 7 7 6 7 6 7 5 5 5 5 6 8 9 11 8 9 10 9 8 9 8 8 7 4 5 8 7
4 3 4 6 3 2 4 4 1 5 6 8 14 14 12 12 13 13 12 13 12 11 12 11 8 5 2 5 7 6 6 7 8 9 8 6 9 9 10 9 9 9 8 7 8 7 7 8 9
Wind_Direction
153 157 176 320 50 65 349 318 33 77 88 55 138 186 184 61 147 199 139 136 134 138 144 141 144 148 145 140 139 141 135 132 129 130 128 131 129 128 128 130 126 122 117 108 109 113 123 129 127
137 128 53 340 71 45 307 332 12 348 119 114 78 61 46 61 65 116 127 147 138 136 141 146 145 150 150 147 145 150 143 144 143 144 141 141 140 139 137 131 126 121 121 126 122 116 123 119 126
132 77 82 80 111 176 240 330 336 14 349 54 113 72 78 105 110 147 133 141 133 135 136 151 147 149 151 153 152 156 152 153 153 158 151 155 156 151 147 135 127 123 127 130 114 113 99 117 117
136 21 30 84 138 234 229 213 72 330 331 12 79 78 73 284 150 144 137 135 129 130 136 154 152 154 152 154 158 162 161 161 161 166 162 167 169 164 155 145 141 132 123 118 116 117 121 129 133
41 55 71 82 268 264 273 185 154 233 275 323 42 100 69 30 111 132 140 139 136 134 144 148 158 160 158 158 160 166 166 171 169 173 172 176 179 175 169 161 153 143 128 127 125 122 106 104 121
36 108 59 122 261 253 253 210 151 240 39 317 79 101 101 130 128 138 139 138 137 139 137 147 159 161 160 163 166 167 168 174 172 180 180 182 192 196 198 177 160 145 143 143 143 129 117 96 108
109 70 132 232 259 298 230 146 175 189 161 212 138 82 98 144 143 139 135 128 134 133 125 125 145 158 161 165 168 172 176 179 174 180 183 191 202 209 205 197 175 159 159 175 152 148 118 112 124
110 100 135 238 207 260 208 186 165 162 177 113 136 147 166 161 148 127 122 123 120 124 133 142 151 154 156 178 172 172 180 177 185 185 190 198 208 202 214 194 188 171 182 185 187 160 128 123 128
123 61 236 246 194 244 157 144 88 65 110 110 93 138 139 138 139 128 125 115 108 132 146 153 150 151 142 166 177 177 183 180 191 187 181 184 154 261 238 196 190 180 198 206 189 163 156 145 144
97 134 224 219 209 231 158 115 144 103 116 140 75 99 129 139 147 151 158 166 168 164 169 148 144 160 147 175 207 156 191 148 182 164 162 134 157 223 225 218 208 189 217 215 184 180 172 150 158
167 232 214 268 216 325 122 121 169 129 224 208 156 142 141 147 162 163 170 175 179 172 165 177 167 147 154 176 152 161 147 150 199 176 169 160 166 238 234 261 295 299 226 211 190 177 163 171 177
216 248 226 288 231 167 156 129 202 188 221 165 156 156 152 161 171 175 172 172 169 175 181 175 173 158 169 167 178 174 157 181 200 204 196 162 192 227 239 229 247 247 239 222 221 295 207 207 196
212 284 319 257 216 185 125 151 221 232 286 132 145 160 171 173 177 179 174 167 166 179 187 190 181 172 172 176 186 172 180 195 198 207 207 189 215 239 254 251 230 247 126 189 232 211 238 291 296
263 268 276 247 189 178 161 162 90 255 132 144 157 174 179 183 179 165 171 180 182 182 190 185 197 185 167 179 186 191 175 196 203 209 210 209 222 253 242 249 227 245 141 215 242 146 27 174 238
311 331 340 108 185 201 123 194 236 137 157 159 179 177 183 186 183 194 188 182 188 193 180 185 194 198 183 185 188 195 189 187 196 213 209 217 212 249 258 228 228 222 171 211 264 298 325 335 358
10 42 359 299 108 277 155 269 263 160 166 178 184 189 189 195 194 194 201 194 185 183 188 180 187 199 197 190 181 192 193 184 201 202 213 214 206 215 218 225 221 194 156 180 240 274 294 307 303
9 303 329 322 349 120 196 261 265 168 177 189 189 195 201 201 197 198 192 197 191 188 175 182 182 187 199 198 187 188 194 198 201 190 196 219 199 204 199 223 237 158 150 199 237 281 281 315 301
306 336 313 239 298 177 206 266 245 199 192 197 196 198 202 204 210 192 190 189 188 187 183 179 183 186 188 168 172 156 176 217 195 203 212 202 192 202 204 211 209 168 149 179 209 236 241 279 297
304 248 262 285 258 284 271 262 250 192 213 209 197 206 209 214 204 193 185 187 187 188 178 179 179 187 174 154 165 178 200 183 199 212 221 207 184 194 200 201 182 210 194 187 191 194 231 248 210
205 243 266 282 286 197 342 291 267 183 211 205 203 206 210 224 190 185 182 185 187 186 190 183 187 184 187 178 174 177 173 180 182 197 209 192 179 195 203 193 196 205 183 174 193 205 164 323 191
203 200 242 214 330 345 353 321 7 340 339 323 280 256 218 211 208 178 186 186 186 190 188 187 189 184 192 177 135 90 73 46 117 215 208 205 180 190 203 213 204 206 197 185 203 222 191 196 213
302 212 242 256 71 263 61 285 17 360 7 3 309 250 228 214 220 194 186 186 190 193 191 189 187 185 187 173 173 172 176 185 199 197 195 202 179 192 192 215 216 214 193 198 186 177 204 193 203
228 42 28 22 174 12 20 75 321 340 359 352 351 356 236 213 213 202 192 194 188 182 186 190 189 188 186 184 185 188 186 193 168 180 200 218 186 193 193 200 216 227 214 208 200 160 175 224 196
103 102 50 52 65 36 318 106 317 7 337 327 336 0 360 276 217 196 192 185 186 183 183 184 185 190 182 182 191 193 196 181 170 187 198 209 209 181 204 210 206 212 227 217 220 190 202 218 235
78 54 350 1 10 179 247 65 210 320 339 334 337 345 352 359 331 192 177 183 178 182 181 180 182 190 186 186 195 199 201 193 199 198 198 183 198 204 204 186 201 204 214 224 221 217 203 206 231
88 139 148 236 237 287 359 130 198 13 336 342 348 352 358 1 347 283 195 178 180 189 183 177 178 187 187 188 201 203 208 202 206 204 192 209 204 209 190 196 195 204 204 214 199 196 226 209 211
175 61 164 102 8 63 308 341 5 349 349 357 358 1 4 356 357 357 122 156 171 184 176 182 174 184 185 196 198 203 205 206 202 193 193 208 207 216 205 202 202 207 212 208 196 211 214 206 212
104 146 56 10 90 1 8 66 306 338 341 340 352 354 356 358 3 8 8 134 153 153 136 146 158 170 177 199 200 209 207 209 213 190 202 206 204 205 198 209 215 215 213 213 193 206 212 207 219
4 29 57 111 101 151 202 210 344 311 322 330 337 349 353 359 3 10 18 24 32 61 108 134 135 141 171 170 193 205 215 222 220 226 221 221 211 204 206 203 204 212 220 208 206 192 243 221 225
65 89 90 113 239 81 136 238 12 304 315 324 331 344 358 5 8 14 16 25 34 58 64 56 40 64 165 177 179 190 204 201 207 217 221 224 231 224 206 203 200 202 206 210 210 189 224 232 226